Gage, OK

9:44 PM CDT on June 23, 2017 (GMT -0500)
Gage

Weather History for KGAG - February, 2012

Change the Weather History Date:

Sunday, February 26, 2012

  Actual Average Record
Temperature  
Mean Temperature 48 °F -  
Max Temperature 62 °F 59 °F 83 °F (1981)
Min Temperature 33 °F 31 °F 8 °F (1960)
Degree Days  
Heating Degree Days 18    
Moisture  
Dew Point 17 °F    
Average Humidity 35    
Maximum Humidity 70    
Minimum Humidity 11    
Precipitation  
Precipitation 0.00 in - - ()
Sea Level Pressure  
Sea Level Pressure 29.98 in    
Wind  
Wind Speed 17 mph (NE)    
Max Wind Speed 37 mph    
Max Gust Speed 46 mph    
Visibility 10 miles    
Events      
Averages and records for this station are not official NWS values.
T = Trace of Precipitation, MM = Missing Value Source: NWS Daily Summary

Daily Weather History Graph

Daily Weather History Graph

Search for Another Location

Airport or City:

Trip Planner

Search our weather history database for the weather conditions in past years. The results will help you decide how hot, cold, wet, or windy it might be!

Date:

Astronomy

Feb. 26, 2012 Rise Set
Actual Time 7:14 AM CST 6:30 PM CST
Civil Twilight 6:48 AM CST 6:56 PM CST
Nautical Twilight 6:18 AM CST 7:26 PM CST
Astronomical Twilight 5:48 AM CST 7:56 PM CST
Moon 9:20 AM CST (2/26) 11:18 PM CST (2/26)
Length of Visible Light 12h 08m
Length of Day
11h 16m
Waxing Crescent, 21% of the Moon is Illuminated
Feb 26
Waxing Crescent
Feb 29
First Quarter
Mar 8
Full
Mar 14
Last Quarter
Mar 22
New

Hourly Weather History & Observations

Time (CST) Temp. Windchill Dew Point Humidity Pressure Visibility Wind Dir Wind Speed Gust Speed Precip Events Conditions
12:53 AM 50.0 °F - 21.0 °F 32% 29.81 in 10.0 mi South 36.8 mph 46.0 mph N/A   Clear
1:53 AM 48.0 °F - 21.9 °F 36% 29.83 in 10.0 mi SSW 23.0 mph 32.2 mph N/A   Clear
2:53 AM 46.0 °F 38.5 °F 23.0 °F 40% 29.82 in 10.0 mi SSW 19.6 mph 29.9 mph N/A   Clear
3:53 AM 44.6 °F 36.9 °F 24.8 °F 46% 29.83 in 10.0 mi SSW 18.4 mph 27.6 mph N/A   Clear
4:53 AM 42.1 °F 36.6 °F 24.1 °F 49% 29.86 in 10.0 mi West 9.2 mph 23.0 mph N/A   Clear
5:53 AM 37.0 °F - 24.1 °F 59% 29.91 in 10.0 mi Calm Calm - N/A   Clear
6:53 AM 33.8 °F 25.3 °F 24.8 °F 70% 29.90 in 10.0 mi South 11.5 mph - N/A   Clear
7:53 AM 36.0 °F 32.1 °F 25.0 °F 64% 29.94 in 10.0 mi WNW 4.6 mph - N/A   Clear
8:53 AM 42.1 °F 40.2 °F 26.1 °F 53% 29.96 in 10.0 mi WSW 3.5 mph - N/A   Clear
9:53 AM 48.9 °F - 26.1 °F 41% 29.96 in 10.0 mi Calm Calm - N/A   Clear
10:53 AM 55.0 °F - 19.9 °F 25% 29.96 in 10.0 mi NNE 15.0 mph - N/A   Clear
11:53 AM 57.0 °F - 12.0 °F 17% 29.96 in 10.0 mi NNE 20.7 mph 27.6 mph N/A   Clear
12:53 PM 59.0 °F - 10.9 °F 15% 29.94 in 10.0 mi ENE 17.3 mph 26.5 mph N/A   Clear
1:53 PM 61.0 °F - 12.0 °F 15% 29.93 in 10.0 mi NE 12.7 mph - N/A   Clear
2:53 PM 62.1 °F - 7.0 °F 11% 29.94 in 10.0 mi NNE 15.0 mph 20.7 mph N/A   Clear
3:53 PM 61.0 °F - 6.1 °F 11% 29.96 in 10.0 mi NNE 13.8 mph - N/A   Clear
4:53 PM 59.0 °F - 7.0 °F 13% 29.98 in 10.0 mi NNE 15.0 mph - N/A   Clear
5:53 PM 55.0 °F - 7.0 °F 15% 30.03 in 10.0 mi NNE 16.1 mph 21.9 mph N/A   Clear
6:53 PM 46.9 °F - 10.9 °F 23% 30.08 in 10.0 mi NE 9.2 mph - N/A   Clear
7:53 PM 41.0 °F 37.1 °F 12.9 °F 32% 30.13 in 10.0 mi NE 5.8 mph - N/A   Clear
8:53 PM 37.0 °F 31.0 °F 15.1 °F 41% 30.16 in 10.0 mi NNE 8.1 mph - N/A   Clear
9:53 PM 37.0 °F 31.6 °F 15.1 °F 41% 30.18 in 10.0 mi NE 6.9 mph - N/A   Clear
10:53 PM 35.1 °F 29.3 °F 16.0 °F 46% 30.22 in 10.0 mi ENE 6.9 mph - N/A   Clear
11:53 PM 34.0 °F 29.8 °F 15.1 °F 46% 30.23 in 10.0 mi NE 4.6 mph - N/A   Clear